JR4VEV-13 Weather Reports


Display with metric or nautical units.
time (UTC)temp
F
wind
direction
speed
MPH
gust
MPH
rain 1hr
in
rain 24hr
in
rain mn
in
humidity
%
barometer
mb
20260505041238 72 326 2.0 4.0 0.00 0.00 0.00 34 1019.9
20260505040238 71 205 0.0 4.0 0.00 0.00 0.00 35 1020.0
20260505035239 70 117 2.0 7.0 0.00 0.00 0.00 35 1020.0
20260505034238 70 87 0.0 8.0 0.00 0.00 0.00 38 1020.2
20260505033237 71 122 0.0 8.0 0.00 0.00 0.00 37 1020.3
20260505032237 70 329 1.0 8.0 0.00 0.00 0.00 41 1020.2
20260505031238 70 121 0.0 4.0 0.00 0.00 0.00 43 1020.4
20260505030238 70 290 0.0 6.0 0.00 0.00 0.00 42 1020.5
20260505025238 69 124 1.0 5.0 0.00 0.00 0.00 42 1020.5
20260505024239 69 85 1.0 5.0 0.00 0.00 0.00 41 1020.7
20260505023238 69 94 2.0 5.0 0.00 0.00 0.00 46 1020.9
20260505022238 69 27 0.0 5.0 0.00 0.00 0.00 46 1021.0
20260505021238 68 145 0.0 5.0 0.00 0.00 0.00 48 1021.1
20260505020238 67 99 4.0 2.0 0.00 0.00 0.00 49 1021.2
20260505015238 66 241 0.0 7.0 0.00 0.00 0.00 49 1021.3
20260505014237 66 330 0.0 5.0 0.00 0.00 0.00 49 1021.2
20260505013238 66 115 3.0 3.0 0.00 0.00 0.00 51 1021.3
20260505012237 66 281 2.0 6.0 0.00 0.00 0.00 51 1021.3
20260505011239 65 205 0.0 3.0 0.00 0.00 0.00 52 1021.4
20260505010238 65 39 0.0 4.0 0.00 0.00 0.00 53 1021.4
20260505005237 65 108 2.0 3.0 0.00 0.00 0.00 54 1021.6
20260505004237 64 91 2.0 3.0 0.00 0.00 0.00 54 1021.5
20260505003238 63 62 1.0 4.0 0.00 0.00 0.00 57 1021.5
20260505002237 62 55 0.0 3.0 0.00 0.00 0.00 62 1021.5
20260505001238 59 67 0.0 2.0 0.00 0.00 0.00 71 1021.5
20260505000238 58 264 2.0 2.0 0.00 0.00 0.00 73 1021.6
20260504235238 57 259 0.0 3.0 0.00 0.00 0.00 77 1021.5
20260504234237 55 302 2.0 3.0 0.00 0.00 0.00 77 1021.5
20260504233238 55 271 0.0 2.0 0.00 0.00 0.00 79 1021.6
20260504232238 54 294 1.0 2.0 0.00 0.00 0.00 81 1021.8
20260504231238 53 263 0.0 3.0 0.00 0.00 0.00 83 1021.8
20260504230237 52 315 2.0 6.0 0.00 0.00 0.00 83 1021.8
20260504225237 52 297 3.0 3.0 0.00 0.00 0.00 85 1021.8
20260504224238 51 303 2.0 3.0 0.00 0.00 0.00 86 1021.8
20260504223238 50 278 1.0 3.0 0.00 0.00 0.00 88 1021.8
20260504222238 49 262 2.0 6.0 0.00 0.00 0.00 89 1021.8
20260504221237 49 305 2.0 4.0 0.00 0.00 0.00 90 1021.9
20260504220239 48 304 1.0 3.0 0.00 0.00 0.00 91 1021.7
20260504215238 48 136 0.0 2.0 0.00 0.00 0.00 92 1021.8
20260504214238 47 231 0.0 1.0 0.00 0.00 0.00 93 1021.7
20260504213237 46 205 0.0 1.0 0.00 0.00 0.00 94 1021.7
20260504212237 45 264 1.0 1.0 0.00 0.00 0.00 94 1021.6
20260504211238 45 261 0.0 2.0 0.00 0.00 0.00 95 1021.7
20260504210237 45 265 1.0 2.0 0.00 0.00 0.00 95 1021.4
20260504205237 45 265 0.0 2.0 0.00 0.00 0.00 95 1021.1
20260504204238 44 281 0.0 3.0 0.00 0.00 0.00 95 1021.0
20260504203238 44 275 1.0 2.0 0.00 0.00 0.00 95 1020.9
20260504202238 44 261 1.0 3.0 0.00 0.00 0.00 95 1020.9
20260504201238 44 241 1.0 2.0 0.00 0.00 0.00 96 1020.6
20260504200236 44 231 0.0 2.0 0.00 0.00 0.00 95 1020.5
20260504195237 44 288 0.0 3.0 0.00 0.00 0.00 95 1020.4
20260504194237 44 270 1.0 2.0 0.00 0.00 0.00 95 1020.3
20260504193236 44 255 1.0 3.0 0.00 0.00 0.00 95 1020.1
20260504192238 45 262 1.0 3.0 0.00 0.00 0.00 95 1020.0
20260504191237 45 271 1.0 2.0 0.00 0.00 0.00 95 1019.9
20260504190238 45 256 2.0 3.0 0.00 0.00 0.00 95 1019.9
20260504185237 45 261 2.0 2.0 0.00 0.00 0.00 95 1019.8
20260504184236 45 254 1.0 3.0 0.00 0.00 0.00 95 1019.7
20260504183237 45 243 0.0 3.0 0.00 0.00 0.00 95 1019.6
20260504182237 45 255 0.0 3.0 0.00 0.00 0.00 95 1019.6
20260504181236 45 203 0.0 2.0 0.00 0.00 0.00 95 1019.4
20260504180238 45 251 1.0 2.0 0.00 0.00 0.00 95 1019.4
20260504175238 45 251 2.0 3.0 0.00 0.00 0.00 94 1019.3
20260504174237 45 262 0.0 2.0 0.00 0.00 0.00 94 1019.2
20260504173236 46 255 0.0 1.0 0.00 0.00 0.00 94 1019.1
20260504172237 46 249 0.0 3.0 0.00 0.00 0.00 94 1019.1
20260504171237 46 278 0.0 3.0 0.00 0.00 0.00 94 1019.1
20260504170236 46 270 0.0 2.0 0.00 0.00 0.00 94 1018.8
20260504160237 47 258 0.0 2.0 0.00 0.00 0.00 93 1018.7
20260504150237 49 303 0.0 2.0 0.00 0.00 0.00 91 1018.7
20260504141237 50 271 0.0 1.0 0.00 0.01 0.01 90 1018.6
20260504140236 50 330 0.0 1.0 0.00 0.01 0.01 88 1018.5
20260504130237 51 276 0.0 0.0 0.00 0.01 0.01 89 1017.8
20260504120235 51 261 0.0 1.0 0.00 0.01 0.01 89 1017.0
20260504110236 53 289 0.0 2.0 0.00 0.01 0.01 88 1016.0
20260504100234 56 282 2.0 3.0 0.00 0.01 0.01 79 1014.5
20260504081236 61 271 7.0 9.0 0.00 0.01 0.01 65 1013.0
20260504080235 61 260 10.0 12.0 0.00 0.01 0.01 65 1012.6
20260504070235 63 270 10.0 15.0 0.00 0.01 0.01 59 1011.4
20260504060234 66 262 13.0 16.0 0.00 0.01 0.01 48 1010.4
20260504050233 68 271 7.0 17.0 0.00 0.01 0.01 41 1009.1